Hourly Weather Roundup
Issued by NWS Central Illinois

Home | Current Version | Previous Version | Text Only | Print | Product List | Glossary On
Versions: 1 2 3 4 5 6 7 8 9 10 11 12 13 14 15 16 17 18 19 20 21 22 23 24 25 26 27 28 29 30 31 32 33 34 35 36 37 38 39 40 41 42 43 44 45 46 47 48 49 50
000
NZUS43 KILX 301910
HWRILX

AREA WEATHER ROUNDUP
NATIONAL WEATHER SERVICE, LINCOLN IL
200 PM CDT SUN AUG 30 2015


CITY           SKY/WX    TMP DP  RH WIND       PRES   REMARKS
BLOOMINGTON    MOSUNNY   82  71  69 VRB6      30.07F HX  86
CHAMPAIGN      MOSUNNY   84  69  60 W5        30.05F HX  88
DANVILLE       MOSUNNY   82  71  68 W6        30.03F HAZE    HX  87
DECATUR        MOSUNNY   85  64  49 W6        30.04F HX  86
EFFINGHAM      MOSUNNY   84  62  47 S5        30.06F HX  85
FLORA          MOSUNNY   85  64  50 CALM      30.05F HX  86
GALESBURG      PTSUNNY   79  67  65 CALM      30.06S HX  81
JACKSONVILLE   MOSUNNY   84  71  65 CALM      30.03F HX  89
LACON          CLOUDY    73  65  77 NE3       30.06F
LAWRENCEVILLE  PTSUNNY   86  66  51 S8        30.06F HX  88
LITCHFIELD     MOSUNNY   83  68  60 S5        30.04F HX  85
$$


CITY           SKY/WX    TMP DP  RH WIND       PRES   REMARKS
LINCOLN        PTSUNNY   84  69  61 E3        30.02F HX  88
MACOMB         SUNNY     78  69  73 CALM      30.07F HX  80
MATTOON        MOSUNNY   84  64  50 SW7G17    30.04F HX  85
MT CARMEL AP   PTSUNNY   82  68  61 SW5       30.06S HX  85
OLNEY-NOBLE AP PTSUNNY   82  68  61 S7        30.06S HX  85
PARIS          MOSUNNY   85  65  51 SW7       30.06F HX  86
PEORIA         PTSUNNY   82  68  62 VRB5      30.06F HX  85
PONTIAC        CLOUDY    78  70  76 W3        30.07F HX  80
RANTOUL        PTSUNNY   82  71  68 CALM      30.05F HX  86
ROBINSON       SUNNY     86  65  49 S9        30.06F HX  88
SPRINGFIELD    MOSUNNY   85  69  58 S5        30.03F HX  89
TAYLORVILLE    SUNNY     82  66  57 S3        30.04F HX  85
$$

...REGIONAL REPORTS...


CITY           SKY/WX    TMP DP  RH WIND       PRES   REMARKS
CHICAGO O`HARE PTSUNNY   73  63  70 N5        30.06F
KANKAKEE       CLOUDY    78  70  76 CALM      30.07S HX  80
MOLINE         MOSUNNY   79  64  60 NE3       30.05F HX  81
MOUNT STERLING MOSUNNY   81  69  66 E6        30.04F HX  84
MOUNT VERNON   PTSUNNY   84  68  58 SW9       30.06F HX  87
PITTSFIELD     MOSUNNY   84  69  60 N3        30.04F HX  88
QUINCY         MOSUNNY   84  68  58 NE5       30.04F HX  87
ROCKFORD       CLOUDY    74  61  63 VRB5      30.08F
$$


CITY           SKY/WX    TMP DP  RH WIND       PRES   REMARKS
BURLINGTON     MOSUNNY   80  68  66 E5        30.05F HX  83
CEDAR RAPIDS   CLOUDY    73  66  78 SW3       30.07F
DES MOINES     CLOUDY    75  65  70 S3        30.05F
KIRKSVILLE     PTSUNNY   83  67  58 E6        30.05F HX  85
OTTUMWA        MOSUNNY   73  68  84 CALM      30.05F
ST LOUIS       PTSUNNY   88  67  49 SW6       30.03F HX  91
$$


CITY           SKY/WX    TMP DP  RH WIND       PRES   REMARKS
TERRE HAUTE    MOSUNNY   86  64  47 SW8       30.05F HX  87
EVANSVILLE     MOSUNNY   83  69  62 S8        30.07F HX  86
INDIANAPOLIS   MOSUNNY   85  62  46 S14       30.06F HX  85
LAFAYETTE      PTSUNNY   83  65  54 VRB6      30.04F HX  85
MADISON        MOSUNNY   71  61  70 S6        30.06F
MILWAUKEE      PTSUNNY   71  63  75 SE3       30.07F
$$





USA.gov is the U.S. government's official web portal to all federal, state and local government web resources and services.